Total_Precipitation_Accumulation
0.00 0.00 0.00 0.00 -0.00 -0.00 -0.05 -0.07 -0.06 -0.06 -0.07 -0.07 -0.06 -0.06 -0.06 -0.06 -0.07 -0.09 -0.09 -0.11 -0.14 -0.19 -0.19 -0.12 -0.07 -0.07 -0.07 -0.09 -0.11 -0.11 -0.08 -0.07 -0.04 -0.04 -0.04 -0.01 -0.00 -0.00 -0.00 -0.00 -0.00 -0.01 -0.01 -0.01 -0.00 -0.00 -0.00 -0.07 -0.08 -0.08 -0.06 0.01 0.03 0.05 0.05 0.08 0.12 0.16 0.16 0.17 0.10 0.09 0.09 0.09 0.06 0.06 0.01 -0.03 -0.04
-0.00 -0.01 -0.01 0.00 0.00 0.00 -0.01 -0.04 -0.07 -0.07 -0.04 -0.03 -0.02 -0.02 -0.02 -0.01 -0.03 -0.06 -0.06 -0.10 -0.11 -0.13 -0.13 -0.12 -0.09 -0.08 -0.08 -0.09 -0.07 -0.07 -0.06 -0.06 -0.04 -0.03 -0.03 -0.01 -0.01 -0.00 -0.00 -0.00 -0.00 -0.00 -0.00 -0.00 -0.00 -0.00 -0.00 -0.04 -0.06 -0.06 0.00 0.03 0.06 0.09 0.09 0.11 0.13 0.15 0.15 0.16 0.16 0.13 0.13 0.13 0.09 0.09 0.03 0.01 -0.02
-0.00 -0.01 -0.01 -0.00 -0.00 -0.00 -0.01 -0.03 -0.03 -0.03 -0.03 -0.04 -0.04 -0.02 -0.02 0.01 0.04 -0.02 -0.02 -0.08 -0.10 -0.08 -0.08 -0.05 -0.04 -0.06 -0.06 -0.10 -0.13 -0.13 -0.10 -0.07 -0.06 -0.04 -0.04 -0.03 -0.02 -0.02 -0.02 -0.02 -0.01 -0.00 -0.00 -0.00 -0.00 -0.00 -0.03 -0.06 -0.03 -0.03 -0.01 0.03 0.07 0.11 0.11 0.14 0.16 0.18 0.18 0.18 0.17 0.20 0.20 0.17 0.11 0.11 0.04 0.02 -0.01
-0.03 -0.04 -0.04 -0.03 -0.04 -0.04 -0.06 -0.07 -0.06 -0.06 -0.06 -0.10 -0.12 -0.09 -0.09 -0.01 0.10 0.06 0.06 0.03 0.02 0.02 0.02 0.02 0.01 -0.02 -0.02 -0.08 -0.03 -0.03 -0.04 -0.03 -0.04 -0.07 -0.07 -0.10 -0.07 -0.05 -0.05 -0.03 -0.02 -0.01 -0.01 -0.01 -0.03 -0.03 -0.06 -0.11 -0.07 -0.07 0.04 0.07 0.10 0.13 0.13 0.14 0.15 0.16 0.16 0.12 0.16 0.22 0.22 0.21 0.13 0.13 0.06 0.03 0.02
-0.08 -0.19 -0.19 -0.35 -0.32 -0.32 -0.26 -0.18 -0.12 -0.12 -0.15 -0.18 -0.19 -0.18 -0.18 -0.10 0.10 0.10 0.10 0.07 0.05 0.05 0.05 0.05 0.04 0.04 0.04 0.04 0.04 0.04 0.01 0.00 -0.03 -0.09 -0.09 -0.13 -0.06 -0.05 -0.05 -0.03 -0.02 -0.01 -0.01 -0.01 -0.05 -0.05 -0.08 -0.10 -0.08 -0.08 -0.02 0.04 0.08 0.11 0.11 0.13 0.14 0.12 0.12 0.12 0.15 0.21 0.21 0.24 0.14 0.14 0.07 0.03 0.01
0.02 -0.08 -0.08 -0.43 -0.50 -0.50 -0.44 -0.32 -0.23 -0.23 -0.21 -0.20 -0.15 -0.10 -0.10 -0.05 0.08 0.11 0.11 0.08 0.02 -0.00 -0.00 0.08 0.07 0.05 0.05 0.05 0.06 0.06 0.04 0.03 0.00 -0.07 -0.07 -0.12 -0.05 -0.00 -0.00 0.02 0.01 0.00 0.00 -0.00 -0.06 -0.06 -0.11 -0.10 -0.11 -0.11 -0.10 -0.02 0.03 0.07 0.07 0.11 0.13 0.12 0.12 0.15 0.16 0.19 0.19 0.22 0.13 0.13 0.07 0.03 0.01
-0.02 -0.06 -0.06 -0.25 -0.36 -0.36 -0.37 -0.34 -0.27 -0.27 -0.13 -0.08 -0.05 -0.02 -0.02 -0.01 0.03 0.07 0.07 0.07 0.04 0.01 0.01 0.05 0.09 0.08 0.08 0.06 0.07 0.07 0.07 0.04 0.04 0.01 0.01 -0.06 -0.12 0.01 0.01 0.08 0.10 0.11 0.11 0.06 -0.08 -0.08 -0.07 -0.09 -0.07 -0.07 -0.05 -0.02 -0.02 0.03 0.03 0.07 0.10 0.15 0.15 0.16 0.16 0.17 0.17 0.17 0.14 0.14 0.06 0.03 0.01
-0.09 -0.12 -0.12 -0.22 -0.25 -0.25 -0.24 -0.25 -0.24 -0.24 -0.09 -0.05 -0.03 -0.01 -0.01 -0.01 0.01 0.01 0.01 0.02 0.02 0.02 0.02 0.04 0.07 0.07 0.07 0.08 0.08 0.08 0.08 0.06 0.06 0.07 0.07 0.06 0.01 0.03 0.03 0.11 0.19 0.20 0.20 0.17 0.01 0.01 0.00 -0.04 -0.06 -0.06 -0.01 0.01 0.02 0.04 0.04 0.08 0.12 0.09 0.09 0.09 0.08 0.08 0.08 0.09 0.09 0.09 0.07 0.02 0.02
-0.05 -0.08 -0.08 -0.21 -0.22 -0.22 -0.20 -0.18 -0.14 -0.14 -0.05 -0.06 -0.07 -0.07 -0.07 -0.06 -0.02 -0.01 -0.01 0.00 0.01 0.03 0.03 0.02 0.06 0.07 0.07 0.07 0.06 0.06 0.06 0.06 0.06 0.07 0.07 0.08 0.11 0.16 0.16 0.18 0.19 0.19 0.19 0.18 0.12 0.12 0.04 0.02 0.00 0.00 0.01 0.03 0.04 0.04 0.04 0.05 0.07 0.01 0.01 0.02 0.02 0.02 0.02 0.03 0.04 0.04 0.04 0.03 0.05
0.02 -0.04 -0.04 -0.05 -0.08 -0.08 -0.15 -0.14 -0.06 -0.06 0.01 -0.05 -0.09 -0.11 -0.11 -0.10 -0.14 -0.08 -0.08 -0.04 -0.01 0.01 0.01 0.02 0.04 0.06 0.06 0.08 0.07 0.07 0.05 0.05 0.06 0.07 0.07 0.07 0.07 0.06 0.06 0.08 0.10 0.13 0.13 0.15 0.06 0.06 -0.01 0.00 0.02 0.02 0.02 0.01 0.01 0.01 0.01 -0.01 0.00 0.00 0.00 0.00 0.00 -0.01 -0.01 -0.01 0.02 0.02 0.03 0.05 0.09
0.04 -0.03 -0.03 -0.04 -0.08 -0.08 -0.15 -0.22 -0.27 -0.27 -0.15 -0.12 -0.14 -0.16 -0.16 -0.17 -0.22 -0.20 -0.20 -0.14 -0.08 -0.02 -0.02 0.01 0.04 0.06 0.06 0.09 0.11 0.11 0.10 0.07 0.08 0.07 0.07 0.05 0.03 0.02 0.02 0.02 0.03 0.04 0.04 0.00 -0.01 -0.01 -0.02 -0.02 0.00 0.00 0.00 -0.02 -0.00 0.02 0.02 0.01 0.01 0.00 0.00 -0.00 -0.00 -0.01 -0.01 -0.05 -0.08 -0.08 -0.01 0.10 0.10
0.05 0.04 0.04 0.02 0.01 0.01 -0.02 -0.09 -0.07 -0.07 0.02 0.01 0.00 -0.00 -0.00 -0.01 -0.05 -0.09 -0.09 -0.09 -0.08 -0.06 -0.06 -0.03 0.00 0.01 0.01 0.03 0.06 0.06 0.10 0.14 0.13 0.07 0.07 0.03 0.02 0.01 0.01 0.01 0.01 0.01 0.01 0.01 -0.01 -0.01 -0.02 -0.02 -0.01 -0.01 -0.01 -0.00 0.01 0.02 0.02 0.01 0.03 0.02 0.02 -0.00 0.00 0.00 0.00 0.00 0.02 0.02 0.06 0.11 0.13
0.03 0.05 0.05 0.04 0.04 0.04 0.03 0.00 -0.03 -0.03 0.11 0.08 0.04 0.05 0.05 0.08 0.07 0.02 0.02 0.01 0.00 -0.00 -0.00 -0.00 0.00 0.00 0.00 -0.00 0.01 0.01 0.03 0.07 0.09 0.04 0.04 0.01 0.00 -0.00 -0.00 0.00 0.02 -0.01 -0.01 0.00 0.01 0.01 0.01 0.01 0.01 0.01 0.01 0.02 0.02 0.02 0.02 0.05 0.05 0.03 0.03 0.01 -0.01 0.00 0.00 0.01 0.02 0.02 0.06 0.10 0.12
0.02 0.03 0.03 0.03 0.04 0.04 0.03 0.02 0.02 0.02 0.10 0.07 0.03 0.06 0.06 0.12 0.14 0.04 0.04 0.01 0.01 0.01 0.01 0.00 -0.00 -0.00 -0.00 -0.00 -0.00 -0.00 -0.00 0.00 0.01 0.01 0.01 0.00 0.00 -0.01 -0.01 -0.02 -0.03 -0.03 -0.03 -0.02 -0.01 -0.01 0.01 0.01 0.01 0.01 0.01 0.02 0.02 0.03 0.03 0.04 0.06 0.04 0.04 0.03 0.01 0.01 0.01 0.03 0.03 0.03 0.07 0.09 0.11
0.01 0.01 0.01 0.01 0.02 0.02 0.03 0.04 0.04 0.04 0.06 0.03 0.01 0.05 0.05 0.13 0.16 0.03 0.03 0.00 -0.00 -0.00 -0.00 -0.00 0.00 0.00 0.00 0.00 0.00 0.00 0.00 0.00 0.00 -0.00 -0.00 0.00 0.00 0.00 0.00 -0.00 -0.00 -0.01 -0.01 -0.01 -0.01 -0.01 -0.00 0.00 0.01 0.01 0.01 0.01 0.02 0.03 0.03 0.05 0.05 0.04 0.04 0.05 0.06 0.08 0.08 0.08 0.07 0.07 0.14 0.13 0.14
0.00 0.01 0.01 0.01 0.01 0.01 0.01 0.02 0.05 0.05 0.08 0.03 0.01 0.02 0.02 0.05 0.05 0.00 0.00 -0.00 -0.00 -0.00 -0.00 -0.00 -0.00 0.00 0.00 0.00 0.00 0.00 0.00 -0.00 -0.00 -0.00 -0.00 -0.00 -0.00 0.00 0.00 0.00 0.00 0.00 0.00 0.00 0.00 0.00 0.00 0.00 0.00 0.00 0.01 0.02 0.03 0.04 0.04 0.04 0.04 0.04 0.04 0.06 0.10 0.13 0.13 0.15 0.15 0.15 0.16 0.16 0.16
0.00 0.00 0.00 0.00 0.01 0.01 0.01 0.01 0.02 0.02 0.06 0.02 0.00 0.00 0.00 0.00 0.00 -0.00 -0.00 -0.00 -0.00 -0.00 -0.00 -0.00 -0.00 -0.00 -0.00 -0.00 0.00 0.00 0.00 -0.00 -0.00 -0.00 -0.00 -0.00 -0.00 0.00 0.00 0.00 0.00 0.00 0.00 0.00 0.00 0.00 0.00 0.00 0.00 0.00 0.01 0.03 0.03 0.04 0.04 0.04 0.04 0.05 0.05 0.05 0.11 0.14 0.14 0.15 0.10 0.10 0.12 0.13 0.14
0.00 0.00 0.00 -0.00 -0.00 -0.00 0.00 0.00 0.00 0.00 -0.00 0.01 0.01 -0.00 -0.00 0.00 0.00 -0.00 -0.00 -0.00 -0.00 -0.00 -0.00 -0.00 -0.00 -0.00 -0.00 -0.00 -0.00 -0.00 -0.00 -0.00 -0.00 -0.00 -0.00 -0.00 -0.00 0.00 0.00 -0.00 -0.00 -0.00 -0.00 0.00 0.01 0.01 0.01 0.01 0.01 0.01 0.03 0.03 0.02 0.03 0.03 0.05 0.07 0.08 0.08 0.07 0.06 0.05 0.05 0.04 0.02 0.02 0.03 0.06 0.08
0.00 0.00 0.00 -0.00 -0.00 -0.00 -0.00 -0.00 0.00 0.00 0.02 0.03 0.03 0.00 0.00 0.00 0.00 -0.00 -0.00 -0.00 -0.00 -0.00 -0.00 -0.00 -0.00 -0.00 -0.00 -0.00 -0.01 -0.01 -0.01 -0.00 -0.00 -0.00 -0.00 -0.00 0.00 -0.00 -0.00 -0.00 -0.00 -0.00 -0.00 0.00 0.00 0.00 0.01 0.01 0.01 0.01 0.02 0.02 0.02 0.03 0.03 0.05 0.07 0.09 0.09 0.08 0.05 0.03 0.03 0.01 0.01 0.01 0.01 0.02 0.04
0.00 0.00 0.00 0.00 -0.00 -0.00 -0.00 -0.00 -0.00 -0.00 0.03 0.04 0.02 0.01 0.01 0.00 -0.00 -0.00 -0.00 -0.00 -0.00 -0.00 -0.00 -0.00 -0.00 -0.00 -0.00 -0.01 -0.01 -0.01 -0.01 -0.00 -0.00 -0.00 -0.00 -0.00 -0.00 -0.00 -0.00 -0.00 -0.00 -0.00 -0.00 -0.00 0.00 0.00 0.00 0.01 0.01 0.01 0.01 0.02 0.02 0.04 0.04 0.05 0.06 0.08 0.08 0.08 0.06 0.03 0.03 0.02 0.01 0.01 0.01 0.01 0.01
0.00 0.00 0.00 0.00 -0.00 -0.00 -0.00 -0.00 -0.00 -0.00 0.00 0.01 0.01 0.01 0.01 0.00 -0.00 -0.00 -0.00 -0.00 -0.00 -0.00 -0.00 -0.00 0.00 0.00 0.00 -0.00 -0.01 -0.01 -0.01 -0.00 -0.00 -0.00 -0.00 -0.00 -0.00 -0.00 -0.00 -0.00 -0.00 -0.00 -0.00 -0.00 -0.00 -0.00 -0.00 0.00 0.01 0.01 0.01 0.01 0.01 0.03 0.03 0.03 0.03 0.04 0.04 0.06 0.06 0.04 0.04 0.04 0.02 0.02 0.01 0.00 0.00
0.00 0.00 0.00 0.00 0.00 0.00 -0.00 -0.00 -0.00 -0.00 -0.00 -0.00 0.00 0.00 0.00 0.00 -0.00 -0.01 -0.01 -0.00 -0.00 -0.00 -0.00 -0.00 -0.00 -0.00 -0.00 -0.00 -0.00 -0.00 -0.00 -0.00 -0.00 -0.01 -0.01 -0.00 -0.00 -0.00 -0.00 -0.00 -0.01 -0.01 -0.01 -0.00 -0.00 -0.00 -0.00 0.00 0.00 0.00 0.01 0.00 0.00 0.01 0.01 0.01 0.01 0.01 0.01 0.03 0.05 0.06 0.06 0.03 0.02 0.02 0.01 0.01 0.00
-0.00 0.00 0.00 0.00 0.00 0.00 0.00 -0.00 -0.00 -0.00 -0.00 -0.00 -0.00 -0.00 -0.00 -0.00 -0.00 -0.00 -0.00 -0.01 -0.00 -0.00 -0.00 -0.00 -0.00 -0.01 -0.01 -0.01 -0.01 -0.01 -0.02 -0.02 -0.02 -0.01 -0.01 -0.01 -0.00 -0.00 -0.00 -0.00 -0.01 -0.02 -0.02 -0.01 -0.00 -0.00 0.00 0.00 0.00 0.00 0.00 0.00 0.00 0.00 0.00 0.00 0.00 0.00 0.00 0.00 0.01 0.00 0.00 0.01 0.01 0.01 0.00 0.00 0.00
-0.00 -0.00 -0.00 0.00 0.00 0.00 0.00 0.00 -0.00 -0.00 -0.00 -0.00 -0.00 -0.00 -0.00 -0.00 -0.01 -0.01 -0.01 -0.01 -0.00 0.00 0.00 -0.00 -0.00 -0.01 -0.01 -0.01 -0.02 -0.02 -0.02 -0.00 -0.00 -0.00 -0.00 -0.00 -0.00 -0.00 -0.00 0.00 -0.00 -0.00 -0.00 -0.00 -0.00 -0.00 0.00 0.00 0.00 0.00 0.00 0.00 0.00 0.00 0.00 0.00 0.00 0.00 0.00 0.00 0.00 -0.00 -0.00 -0.00 -0.00 -0.00 0.00 0.00 -0.00
-0.00 -0.00 -0.00 0.00 0.00 0.00 0.00 0.00 -0.00 -0.00 -0.00 -0.00 -0.00 -0.00 -0.00 -0.00 -0.01 -0.01 -0.01 -0.00 -0.00 0.02 0.02 0.03 0.01 0.00 0.00 -0.01 -0.01 -0.01 -0.00 0.00 0.00 0.00 0.00 -0.00 -0.00 -0.00 -0.00 0.00 0.00 0.00 0.00 0.00 0.00 0.00 0.00 0.00 0.00 0.00 0.00 0.00 0.00 0.00 0.00 0.00 0.00 0.00 0.00 0.00 0.00 -0.00 -0.00 -0.00 -0.00 -0.00 -0.00 -0.00 -0.00
-0.00 -0.00 -0.00 -0.00 0.00 0.00 -0.00 -0.00 -0.00 -0.00 -0.00 -0.00 -0.00 -0.00 -0.00 -0.00 -0.00 -0.00 -0.00 -0.00 0.00 0.02 0.02 0.03 0.03 0.02 0.02 0.01 0.01 0.01 0.01 0.00 0.00 0.00 0.00 -0.00 0.00 0.00 0.00 0.00 0.00 0.00 0.00 0.00 0.00 0.00 0.00 0.00 0.00 0.00 0.00 0.00 0.00 0.00 0.00 0.00 -0.00 -0.00 -0.00 -0.00 -0.00 -0.00 -0.00 -0.00 -0.00 -0.00 -0.00 -0.00 -0.00
-0.00 -0.00 -0.00 -0.00 -0.00 -0.00 -0.00 -0.00 -0.00 -0.00 -0.00 -0.00 -0.00 -0.00 -0.00 -0.00 -0.00 -0.00 -0.00 -0.00 0.00 0.00 0.00 0.02 0.03 0.02 0.02 0.02 0.02 0.02 0.01 0.01 0.00 0.00 0.00 0.00 0.00 0.00 0.00 0.00 0.01 0.00 0.00 0.00 0.00 0.00 0.00 0.00 0.00 0.00 0.00 0.00 -0.00 0.00 0.00 -0.00 -0.00 -0.00 -0.00 -0.00 -0.00 -0.00 -0.00 -0.00 -0.00 -0.00 -0.00 -0.00 -0.00
-0.00 -0.00 -0.00 -0.00 -0.00 -0.00 -0.00 -0.00 -0.00 -0.00 -0.00 -0.00 -0.00 -0.00 -0.00 -0.00 -0.00 -0.00 -0.00 -0.00 -0.00 0.00 0.00 0.01 0.01 0.01 0.01 0.02 0.02 0.02 0.02 0.01 0.01 0.00 0.00 0.00 0.00 0.00 0.00 0.01 0.01 0.01 0.01 0.00 0.00 0.00 0.00 0.00 0.00 0.00 0.00 0.00 0.00 0.00 0.00 -0.00 -0.00 -0.00 -0.00 -0.00 -0.00 -0.00 -0.00 -0.00 -0.00 -0.00 -0.00 -0.00 0.00
-0.00 -0.00 -0.00 -0.00 -0.00 -0.00 -0.00 -0.00 -0.00 -0.00 -0.00 -0.00 -0.00 -0.00 -0.00 -0.00 -0.00 -0.00 -0.00 -0.00 -0.00 -0.00 -0.00 0.00 0.00 0.01 0.01 0.01 0.01 0.01 0.01 0.01 0.01 0.01 0.01 0.01 0.01 0.01 0.01 0.01 0.01 0.01 0.01 0.00 0.00 0.00 0.00 0.00 0.00 0.00 0.00 0.00 0.01 0.01 0.01 0.00 0.00 -0.00 -0.00 -0.00 -0.00 -0.00 -0.00 -0.00 -0.00 -0.00 -0.00 -0.00 0.00
-0.00 -0.00 -0.00 -0.00 -0.00 -0.00 -0.00 -0.00 -0.00 -0.00 -0.00 -0.00 -0.00 -0.00 -0.00 -0.00 -0.00 -0.00 -0.00 -0.00 -0.00 -0.00 -0.00 0.00 0.00 0.00 0.00 0.01 0.01 0.01 0.01 0.01 0.01 0.01 0.01 0.01 0.01 0.01 0.01 0.01 0.01 0.01 0.01 0.01 0.00 0.00 0.00 0.00 0.00 0.00 0.00 0.01 0.01 0.01 0.01 0.01 0.00 0.00 0.00 0.00 -0.00 -0.00 -0.00 -0.00 -0.00 -0.00 0.00 0.00 0.01
-0.00 -0.00 -0.00 -0.00 -0.00 -0.00 -0.00 -0.00 -0.00 -0.00 -0.00 -0.00 -0.00 -0.00 -0.00 -0.00 -0.00 -0.00 -0.00 -0.00 0.00 0.00 0.00 0.00 0.00 0.00 0.00 0.00 0.01 0.01 0.01 0.01 0.01 0.01 0.01 0.01 0.02 0.02 0.02 0.02 0.02 0.02 0.02 0.01 0.00 0.00 0.00 0.00 0.00 0.00 0.01 0.01 0.01 0.01 0.01 0.01 0.01 0.00 0.00 0.00 -0.00 -0.00 -0.00 0.00 0.00 0.00 0.00 0.00 0.01
-0.00 -0.00 -0.00 -0.00 -0.00 -0.00 -0.00 -0.00 -0.00 -0.00 -0.00 -0.00 -0.00 -0.00 -0.00 -0.00 -0.00 -0.00 -0.00 -0.00 0.00 0.00 0.00 0.00 0.00 0.00 0.00 0.00 0.00 0.00 0.01 0.01 0.01 0.01 0.01 0.01 0.01 0.02 0.02 0.02 0.02 0.02 0.02 0.02 0.04 0.04 0.02 0.00 0.00 0.00 0.01 0.01 0.01 0.01 0.01 0.01 0.01 0.01 0.01 0.00 -0.00 0.00 0.00 0.01 0.01 0.01 -0.00 -0.00 0.00
-0.00 -0.00 -0.00 -0.00 -0.00 -0.00 -0.00 -0.00 -0.00 -0.00 -0.00 -0.00 -0.00 -0.00 -0.00 -0.00 0.00 -0.00 -0.00 -0.00 0.00 0.00 0.00 0.00 0.00 0.00 0.00 0.00 0.00 0.00 0.01 0.01 0.01 0.01 0.01 0.01 0.01 0.01 0.01 0.02 0.02 0.03 0.03 0.04 0.04 0.04 0.03 0.01 0.01 0.01 0.01 0.01 0.01 0.01 0.01 0.01 0.02 0.01 0.01 0.00 -0.00 0.01 0.01 0.01 0.00 0.00 0.00 -0.00 -0.00
-0.00 -0.00 -0.00 -0.00 -0.00 -0.00 -0.00 -0.00 -0.00 -0.00 -0.00 -0.00 0.00 0.00 0.00 0.00 0.00 0.00 0.00 0.00 0.00 0.00 0.00 0.00 0.00 0.00 0.00 0.00 0.00 0.00 0.01 0.01 0.01 0.01 0.01 0.01 0.01 0.01 0.01 0.02 0.03 0.03 0.03 0.05 0.04 0.04 0.03 0.03 0.03 0.03 0.02 0.01 0.01 0.00 0.00 0.00 0.01 -0.00 -0.00 -0.00 -0.00 -0.00 -0.00 -0.00 -0.00 -0.00 -0.00 -0.00 0.00
-0.00 -0.00 -0.00 -0.00 -0.00 -0.00 -0.00 -0.00 -0.00 -0.00 -0.00 -0.00 0.00 0.00 0.00 0.00 0.00 0.00 0.00 0.00 0.00 0.00 0.00 0.00 0.00 0.00 0.00 0.00 0.00 0.00 0.01 0.01 0.01 0.01 0.01 0.01 0.01 0.02 0.02 0.02 0.03 0.04 0.04 0.04 0.04 0.04 0.02 0.02 0.02 0.02 0.01 0.01 0.01 0.01 0.01 0.00 0.00 -0.00 -0.00 -0.00 -0.00 -0.00 -0.00 -0.00 -0.00 -0.00 -0.00 -0.00 -0.00
-0.00 -0.00 -0.00 -0.00 -0.00 -0.00 -0.00 -0.00 -0.00 -0.00 -0.00 -0.00 -0.00 -0.00 -0.00 0.00 0.00 0.00 0.00 0.00 0.00 0.00 0.00 0.00 0.00 0.00 0.00 0.00 0.00 0.00 0.00 0.01 0.01 0.01 0.01 0.01 0.02 0.02 0.02 0.03 0.03 0.02 0.02 0.02 0.03 0.03 0.02 0.01 0.01 0.01 0.01 0.00 0.00 0.00 0.00 0.00 -0.00 -0.00 -0.00 -0.00 -0.00 -0.00 -0.00 -0.00 -0.00 -0.00 -0.00 -0.00 -0.00
-0.00 -0.00 -0.00 -0.00 -0.00 -0.00 -0.00 -0.00 -0.00 -0.00 -0.00 -0.00 -0.00 -0.00 -0.00 -0.00 0.00 0.00 0.00 0.00 0.00 0.00 0.00 0.00 0.00 0.00 0.00 0.00 0.00 0.00 0.00 0.00 0.01 0.01 0.01 0.01 0.01 0.02 0.02 0.03 0.02 0.02 0.02 0.02 0.01 0.01 0.01 0.01 0.01 0.01 0.00 0.00 0.00 0.00 0.00 0.00 0.00 -0.00 -0.00 -0.00 -0.00 -0.00 -0.00 -0.00 -0.00 -0.00 -0.00 -0.00 -0.00
-0.00 -0.00 -0.00 -0.00 -0.00 -0.00 -0.00 -0.00 -0.00 -0.00 -0.00 -0.00 -0.00 -0.00 -0.00 -0.00 0.00 0.00 0.00 0.00 0.00 0.00 0.00 0.00 0.00 0.00 0.00 0.00 0.00 0.00 0.00 0.00 0.00 0.01 0.01 0.01 0.01 0.03 0.03 0.02 0.01 0.01 0.01 0.01 0.01 0.01 0.00 0.00 0.00 0.00 0.00 0.00 0.00 0.00 0.00 0.00 0.00 -0.00 -0.00 -0.00 -0.00 -0.00 -0.00 -0.00 -0.00 -0.00 -0.00 -0.00 -0.00
-0.00 -0.00 -0.00 -0.00 -0.00 -0.00 -0.00 -0.00 -0.00 -0.00 -0.00 -0.00 -0.00 -0.00 -0.00 -0.00 -0.00 0.00 0.00 0.00 0.00 0.00 0.00 0.00 0.00 0.00 0.00 0.00 0.00 0.00 0.00 0.00 0.00 0.00 0.00 0.01 0.01 0.02 0.02 0.01 0.01 0.01 0.01 0.01 0.00 0.00 0.00 0.00 0.00 0.00 0.00 0.00 0.00 0.00 0.00 0.00 0.00 -0.00 -0.00 -0.00 -0.00 -0.00 -0.00 -0.00 -0.00 -0.00 -0.00 -0.00 -0.00
-0.00 -0.00 -0.00 -0.00 -0.00 -0.00 -0.00 -0.00 -0.00 -0.00 0.00 0.00 0.00 -0.00 -0.00 -0.00 0.00 0.00 0.00 0.00 0.00 0.00 0.00 0.00 0.00 0.00 0.00 0.00 0.00 0.00 0.00 0.00 0.00 0.00 0.00 0.00 0.00 0.00 0.00 0.00 0.00 0.00 0.00 0.00 0.00 0.00 0.00 -0.00 0.00 0.00 0.00 -0.00 0.00 -0.00 -0.00 0.00 0.00 0.00 0.00 -0.00 -0.00 -0.00 -0.00 -0.00 -0.00 -0.00 -0.00 -0.00 -0.00
-0.00 -0.00 -0.00 -0.00 -0.00 -0.00 -0.00 -0.00 -0.00 -0.00 0.00 0.00 0.00 0.00 0.00 -0.00 0.00 -0.00 -0.00 -0.00 -0.00 0.00 0.00 0.00 0.00 0.00 0.00 0.00 0.00 0.00 0.00 0.00 0.00 0.00 0.00 0.00 0.00 0.00 0.00 0.00 0.00 0.00 0.00 0.00 0.00 0.00 -0.00 -0.00 0.00 0.00 -0.00 -0.00 -0.00 -0.00 -0.00 -0.00 0.00 -0.00 -0.00 -0.00 -0.00 -0.00 -0.00 -0.00 -0.00 -0.00 -0.00 -0.00 -0.00